period_start,C,m1,H,J0,J1,J2,J3,J4,J5,JA,JB,JC,JD,JJ,JK,JN,#
2015-06-16 00:00:46,0.00,0.04,0.00,22.82,26.95,29.58,4.73,23.23,1008.80,2038.99,3507.11,3312.00,3599.00,349.84,344.97,13.85,0000 0000 0000 0000 000000
2015-06-16 00:05:48,-0.01,0.04,0.00,22.85,26.95,29.60,4.65,23.37,1008.79,2038.99,3507.36,3312.03,3599.00,349.66,345.01,13.88,0000 0000 0000 0000 000000
2015-06-16 00:10:49,-0.00,0.04,0.00,22.84,26.95,29.60,4.70,23.20,1008.80,2038.99,3507.72,3312.01,3599.00,350.02,345.36,13.91,0000 0000 0000 0000 000000
2015-06-16 00:15:50,0.01,0.04,0.00,22.86,26.95,29.60,4.72,23.37,1008.80,2038.99,3507.35,3312.01,3599.00,350.10,344.99,13.94,0000 0000 0000 0000 000000
2015-06-16 00:20:51,0.00,0.04,0.00,22.89,26.95,29.60,4.77,23.55,1008.80,2038.99,3507.17,3312.00,3599.00,350.15,345.29,13.97,0000 0000 0000 0000 000000
2015-06-16 00:25:52,-0.01,0.04,0.00,22.92,26.95,29.61,4.74,23.52,1008.80,2038.99,3507.62,3312.01,3598.99,349.60,344.67,14.00,0000 0000 0000 0000 000000
2015-06-16 00:30:53,0.00,0.04,0.00,22.92,26.95,29.61,4.71,23.34,1008.80,2038.99,3507.73,3312.02,3598.99,349.95,344.89,14.03,0000 0000 0000 0000 000000
2015-06-16 00:35:54,0.00,0.04,0.00,22.97,26.95,29.61,4.67,23.32,1008.80,2038.99,3507.59,3312.01,3598.99,349.44,344.72,14.06,0000 0000 0000 0000 000000
2015-06-16 00:40:56,-0.01,0.04,0.00,22.97,26.95,29.60,4.73,23.29,1008.81,2038.99,3507.87,3312.02,3598.99,349.97,345.02,14.08,0000 0000 0000 0000 000000
2015-06-16 00:45:56,-0.00,0.04,0.00,22.99,26.95,29.60,4.67,23.24,1008.81,2038.99,3507.88,3312.02,3598.99,349.62,344.44,14.11,0000 0000 0000 0000 000000
2015-06-16 00:50:58,0.01,0.04,0.00,23.01,26.95,29.60,4.74,23.38,1008.81,2038.99,3507.56,3312.01,3598.99,350.42,345.24,14.14,0000 0000 0000 0000 000000
2015-06-16 00:55:59,0.00,0.04,0.00,23.03,26.95,29.60,4.78,23.39,1008.81,2038.99,3507.23,3312.01,3598.99,349.66,344.55,14.17,0000 0000 0000 0000 000000
2015-06-16 01:01:01,-0.01,0.04,0.00,23.05,26.95,29.59,4.79,23.25,1008.81,2038.99,3507.78,3312.04,3599.00,350.21,345.16,14.20,0000 0000 0000 0000 000000
2015-06-16 01:06:01,0.00,0.04,0.00,23.08,26.96,29.59,4.74,23.20,1008.81,2038.99,3507.90,3312.04,3599.00,350.09,345.11,14.23,0000 0000 0000 0000 000000
2015-06-16 01:11:03,0.00,0.04,0.00,23.07,26.97,29.59,4.69,23.26,1008.82,2038.99,3507.69,3312.04,3599.00,349.93,344.97,14.26,0000 0000 0000 0000 000000
2015-06-16 01:16:04,0.01,0.04,0.00,23.10,26.97,29.57,4.73,23.31,1008.83,2038.99,3507.30,3312.01,3599.00,349.79,344.84,14.29,0000 0000 0000 0000 000000
2015-06-16 01:21:06,0.00,0.04,0.00,23.09,26.97,29.62,4.74,23.38,1008.93,2038.98,3507.04,3312.00,3599.00,350.14,345.02,14.32,0000 0000 0000 0000 000000
2015-06-16 01:26:07,-0.01,0.04,0.00,23.12,26.97,29.59,4.74,23.28,1009.05,2038.99,3507.45,3312.00,3598.99,350.13,345.01,14.35,0000 0000 0000 0000 000000
2015-06-16 01:31:09,0.01,0.04,0.00,23.13,26.97,29.56,4.77,23.36,1009.04,2038.98,3507.12,3312.00,3598.99,349.80,345.11,14.38,0000 0000 0000 0000 000000
2015-06-16 01:36:10,0.00,0.04,0.00,23.15,26.98,29.57,4.71,23.25,1009.25,2038.99,3507.14,3312.00,3598.97,350.21,345.15,14.41,0000 0000 0000 0000 000000
2015-06-16 01:41:11,0.00,0.04,0.00,23.18,26.99,29.57,4.72,23.26,1009.25,2038.98,3507.16,3312.00,3598.99,349.50,344.46,14.44,0000 0000 0000 0000 000000
2015-06-16 01:46:12,-0.00,0.04,0.00,23.19,27.00,29.57,4.71,23.33,1009.28,2038.99,3507.00,3312.00,3598.98,349.70,344.57,14.47,0000 0000 0000 0000 000000
2015-06-16 01:51:14,-0.00,0.04,0.00,23.20,27.00,29.58,4.70,23.38,1009.29,2038.99,3507.00,3312.00,3598.98,350.06,345.02,14.49,0000 0000 0000 0000 000000
2015-06-16 01:56:15,0.00,0.04,0.00,23.18,27.00,29.59,4.76,23.31,1009.29,2038.97,3507.00,3311.98,3598.81,350.17,345.29,14.52,0000 0000 0000 0000 000000
2015-06-16 02:01:16,-0.00,0.04,0.00,23.19,27.00,29.61,4.73,23.26,1009.29,2038.97,3507.01,3311.99,3598.73,350.00,344.93,14.55,0000 0000 0000 0000 000000
2015-06-16 02:06:18,-0.00,0.04,0.00,23.21,27.01,29.60,4.73,23.27,1009.29,2038.95,3507.00,3311.99,3598.79,350.06,345.11,14.58,0000 0000 0000 0000 000000
2015-06-16 02:11:19,0.00,0.04,0.00,23.23,27.02,29.57,4.73,23.24,1009.29,2038.97,3507.00,3311.99,3598.90,349.74,344.74,14.61,0000 0000 0000 0000 000000
2015-06-16 02:16:20,0.00,0.04,0.00,23.24,27.02,29.61,4.65,23.32,1009.29,2038.98,3507.01,3311.99,3598.80,349.64,344.30,14.64,0000 0000 0000 0000 000000
2015-06-16 02:21:21,0.00,0.04,0.00,23.26,27.02,29.59,4.76,23.38,1009.31,2038.95,3507.00,3311.98,3598.42,349.90,344.82,14.67,0000 0000 0000 0000 000000
2015-06-16 02:26:22,0.00,0.04,0.00,23.27,27.02,29.57,4.75,23.25,1009.32,2038.91,3506.99,3311.98,3598.20,350.29,345.18,14.70,0000 0000 0000 0000 000000
2015-06-16 02:31:24,0.00,0.04,0.00,23.28,27.03,29.61,4.69,23.33,1009.30,2038.89,3506.99,3311.94,3598.16,350.12,345.10,14.73,0000 0000 0000 0000 000000
2015-06-16 02:36:25,-0.01,0.04,0.00,23.31,27.04,29.62,4.77,23.25,1009.30,2038.81,3506.99,3311.91,3598.07,349.81,344.51,14.76,0000 0000 0000 0000 000000
2015-06-16 02:41:26,0.01,0.04,0.00,23.34,27.05,29.56,4.69,23.43,1009.31,2038.87,3506.99,3311.95,3598.07,349.72,344.35,14.79,0000 0000 0000 0000 000000
2015-06-16 02:46:28,-0.01,0.04,0.00,23.37,27.05,29.57,4.73,23.22,1009.36,2038.89,3506.99,3311.94,3598.09,350.08,344.77,14.82,0000 0000 0000 0000 000000
2015-06-16 02:51:29,-0.06,0.04,0.00,23.39,27.05,29.54,4.77,23.19,1009.33,2038.55,3506.98,3311.77,3598.02,350.31,344.91,14.85,0000 0000 0000 0000 000000
2015-06-16 02:56:30,0.01,0.04,0.00,23.40,27.06,29.54,4.68,23.29,1009.31,2038.43,3506.98,3311.61,3598.01,349.73,344.43,14.88,0000 0000 0000 0000 000000
2015-06-16 03:01:32,-0.02,0.04,0.00,23.41,27.07,29.57,4.74,23.29,1009.33,2038.41,3506.98,3311.61,3598.00,350.27,344.63,14.90,0000 0000 0000 0000 000000
2015-06-16 03:06:33,0.02,0.04,0.00,23.44,27.07,29.56,4.72,23.19,1009.37,2038.36,3506.97,3311.45,3598.00,350.34,345.03,14.93,0000 0000 0000 0000 000000
2015-06-16 03:11:34,0.07,0.04,0.00,23.47,27.07,29.54,4.71,23.31,1009.33,2038.52,3506.50,3311.15,3598.00,349.81,344.62,14.96,0000 0000 0000 0000 000000
2015-06-16 03:16:36,-0.04,0.04,0.00,23.48,27.08,29.53,4.74,23.15,1009.32,2038.30,3506.45,3311.05,3598.00,350.39,345.01,14.99,0000 0000 0000 0000 000000
2015-06-16 03:21:37,-0.02,0.04,0.00,23.49,27.10,29.53,4.71,23.48,1009.30,2038.20,3506.16,3311.02,3598.00,350.04,344.53,15.02,0000 0000 0000 0000 000000
2015-06-16 03:26:38,-0.01,0.04,0.00,23.51,27.10,29.54,4.73,23.23,1009.35,2038.11,3506.19,3311.02,3597.99,349.74,344.41,15.05,0000 0000 0000 0000 000000
2015-06-16 03:31:38,0.04,0.04,0.00,23.53,27.10,29.54,4.72,23.38,1009.32,2038.32,3506.12,3311.01,3597.99,349.94,344.56,15.08,0000 0000 0000 0000 000000
2015-06-16 03:36:40,-0.03,0.04,0.00,23.55,27.12,29.55,4.70,23.32,1009.46,2038.20,3506.04,3311.00,3597.98,349.87,344.44,15.11,0000 0000 0000 0000 000000
2015-06-16 03:41:41,0.06,0.04,0.00,23.57,27.12,29.55,4.71,23.32,1009.76,2038.37,3506.00,3311.00,3597.98,350.09,344.69,15.14,0000 0000 0000 0000 000000
2015-06-16 03:46:42,-0.01,0.04,0.00,23.59,27.12,29.56,4.65,23.29,1009.78,2038.45,3505.99,3311.00,3597.97,349.98,344.71,15.17,0000 0000 0000 0000 000000
2015-06-16 03:51:43,-0.02,0.04,0.00,23.61,27.14,29.57,4.68,23.25,1009.78,2038.19,3505.98,3310.99,3597.91,349.57,343.98,15.20,0000 0000 0000 0000 000000
2015-06-16 03:56:45,-0.01,0.04,0.00,23.62,27.15,29.57,4.67,23.15,1009.79,2038.13,3505.98,3310.97,3597.75,349.23,344.05,15.23,0000 0000 0000 0000 000000
2015-06-16 04:01:46,0.00,0.04,0.00,23.65,27.15,29.58,4.69,23.14,1009.80,2038.07,3505.97,3310.97,3597.59,350.14,344.46,15.26,0000 0000 0000 0000 000000
2015-06-16 04:06:47,-0.00,0.04,0.00,23.67,27.16,29.59,4.70,23.43,1009.79,2038.03,3505.98,3310.95,3597.33,349.47,344.05,15.29,0000 0000 0000 0000 000000
2015-06-16 04:11:48,0.02,0.04,0.00,23.68,27.17,29.59,4.70,23.18,1009.81,2038.02,3505.94,3310.67,3597.08,349.55,344.06,15.31,0000 0000 0000 0000 000000
2015-06-16 04:16:49,0.01,0.04,0.00,23.69,27.17,29.60,4.72,23.13,1009.82,2038.02,3505.74,3310.29,3597.01,350.64,345.01,15.34,0000 0000 0000 0000 000000
2015-06-16 04:21:50,0.01,0.04,0.00,23.70,27.18,29.60,4.66,23.50,1009.81,2038.00,3505.58,3310.11,3597.00,349.50,344.10,15.37,0000 0000 0000 0000 000000
2015-06-16 04:26:52,-0.00,0.04,0.00,23.72,27.20,29.61,4.67,23.36,1009.84,2038.00,3505.74,3310.05,3597.00,349.61,344.16,15.40,0000 0000 0000 0000 000000
2015-06-16 04:31:52,0.01,0.04,0.00,23.74,27.20,29.62,4.79,23.36,1009.99,2038.00,3505.47,3310.03,3597.00,350.18,344.77,15.43,0000 0000 0000 0000 000000
2015-06-16 04:36:54,-0.01,0.04,0.00,23.75,27.20,29.62,4.73,23.34,1010.12,2038.00,3505.39,3310.04,3596.99,349.59,344.17,15.46,0000 0000 0000 0000 000000
2015-06-16 04:41:55,0.00,0.04,0.00,23.77,27.22,29.63,4.71,23.28,1010.08,2038.00,3505.44,3310.03,3596.99,350.29,344.84,15.49,0000 0000 0000 0000 000000
2015-06-16 04:46:56,0.00,0.04,0.00,23.78,27.22,29.63,4.67,23.23,1010.20,2038.00,3505.22,3310.01,3596.99,349.99,344.42,15.52,0000 0000 0000 0000 000000
2015-06-16 04:51:58,0.00,0.04,0.00,23.80,27.23,29.64,4.73,23.24,1010.26,2038.00,3505.10,3310.00,3596.95,349.83,344.56,15.55,0000 0000 0000 0000 000000
2015-06-16 04:56:59,-0.00,0.04,0.00,23.81,27.25,29.65,4.75,23.26,1010.27,2037.99,3505.10,3310.00,3596.93,349.65,344.27,15.58,0000 0000 0000 0000 000000
2015-06-16 05:02:00,0.00,0.04,0.00,23.82,27.25,29.66,4.73,23.17,1010.27,2037.99,3505.06,3310.00,3596.91,349.61,344.18,15.61,0000 0000 0000 0000 000000
2015-06-16 05:07:01,0.01,0.04,0.00,23.84,27.25,29.67,4.70,23.33,1010.27,2037.98,3505.02,3309.99,3596.64,349.49,344.23,15.64,0000 0000 0000 0000 000000
2015-06-16 05:12:03,0.01,0.04,0.00,23.85,27.27,29.68,4.67,23.29,1010.29,2037.98,3505.00,3309.98,3596.42,349.29,343.86,15.67,0000 0000 0000 0000 000000
2015-06-16 05:17:04,0.00,0.04,0.00,23.86,27.27,29.68,4.66,23.32,1010.29,2037.99,3504.95,3309.97,3596.58,349.63,344.33,15.70,0000 0000 0000 0000 000000
2015-06-16 05:22:05,0.03,0.04,0.00,23.87,27.28,29.70,4.69,23.40,1010.32,2037.99,3504.73,3309.86,3596.31,349.72,344.25,15.72,0000 0000 0000 0000 000000
2015-06-16 05:27:07,-0.00,0.04,0.00,23.87,27.30,29.70,4.67,23.34,1010.39,2037.99,3504.71,3309.79,3596.06,349.76,344.02,15.75,0000 0000 0000 0000 000000
2015-06-16 05:32:07,0.02,0.04,0.00,23.87,27.30,29.71,4.74,23.24,1010.58,2037.98,3504.63,3309.47,3596.02,350.55,345.11,15.78,0000 0000 0000 0000 000000
2015-06-16 05:37:09,-0.02,0.04,0.00,23.88,27.30,29.72,4.70,23.14,1010.72,2037.97,3504.80,3309.59,3596.02,349.67,344.39,15.81,0000 0000 0000 0000 000000
2015-06-16 05:42:10,0.02,0.04,0.00,23.90,27.32,29.73,4.68,23.24,1010.76,2037.99,3504.56,3309.42,3596.01,349.83,344.53,15.84,0000 0000 0000 0000 000000
2015-06-16 05:47:11,0.02,0.04,0.00,23.90,27.32,29.73,4.66,23.23,1010.76,2037.99,3504.46,3309.30,3596.00,349.41,344.07,15.87,0000 0000 0000 0000 000000
2015-06-16 05:52:12,0.01,0.04,0.00,23.90,27.32,29.75,4.66,23.32,1010.78,2037.97,3504.12,3309.06,3596.00,349.65,344.36,15.90,0000 0000 0000 0000 000000
2015-06-16 05:57:13,-0.00,0.04,0.00,23.91,27.34,29.75,4.71,23.38,1010.80,2037.96,3504.05,3309.04,3596.00,349.75,344.46,15.93,0000 0000 0000 0000 000000
2015-06-16 06:02:14,-0.00,0.04,0.00,23.92,27.35,29.76,4.73,23.25,1010.90,2037.96,3504.02,3309.02,3596.00,350.14,344.79,15.96,0000 0000 0000 0000 000000
2015-06-16 06:07:16,-0.01,0.04,0.00,23.92,27.35,29.76,4.69,23.16,1011.03,2037.94,3504.01,3309.00,3595.99,349.79,344.55,15.99,0000 0000 0000 0000 000000
2015-06-16 06:12:17,-0.01,0.04,0.00,23.93,27.35,29.77,4.65,23.27,1011.04,2037.86,3504.00,3309.00,3595.97,349.88,344.64,16.02,0000 0000 0000 0000 000000
2015-06-16 06:17:18,0.00,0.04,0.00,23.93,27.36,29.78,4.75,23.22,1011.06,2037.83,3504.01,3309.00,3595.95,350.17,344.77,16.05,0000 0000 0000 0000 000000
2015-06-16 06:22:19,-0.01,0.04,0.00,23.93,27.37,29.79,4.71,23.34,1011.23,2037.79,3504.00,3309.00,3595.89,349.98,344.49,16.08,0000 0000 0000 0000 000000
2015-06-16 06:27:20,-0.03,0.04,0.00,23.95,27.37,29.79,4.71,23.20,1011.24,2037.56,3504.01,3309.00,3595.69,350.01,344.75,16.11,0000 0000 0000 0000 000000
2015-06-16 06:32:21,0.02,0.04,0.00,23.96,27.37,29.79,4.72,23.33,1011.24,2037.64,3504.00,3308.99,3595.84,350.51,345.11,16.13,0000 0000 0000 0000 000000
2015-06-16 06:37:23,-0.02,0.04,0.00,23.97,27.38,29.79,4.77,23.19,1011.24,2037.54,3504.00,3308.99,3595.63,350.29,344.95,16.16,0000 0000 0000 0000 000000
2015-06-16 06:42:24,0.02,0.04,0.00,23.97,27.40,29.81,4.65,23.30,1011.26,2037.58,3504.00,3308.99,3595.59,349.91,344.63,16.19,0000 0000 0000 0000 000000
2015-06-16 06:47:26,-0.00,0.04,0.00,23.97,27.40,29.81,4.69,23.27,1011.26,2037.58,3503.99,3308.99,3595.61,349.78,344.39,16.22,0000 0000 0000 0000 000000
2015-06-16 06:52:27,-0.00,0.04,0.00,23.97,27.40,29.82,4.71,23.28,1011.29,2037.53,3503.98,3308.97,3595.37,349.92,344.51,16.25,0000 0000 0000 0000 000000
2015-06-16 06:57:28,-0.04,0.04,0.00,23.99,27.40,29.81,4.67,23.28,1011.30,2037.23,3503.91,3308.95,3595.10,349.57,344.15,16.28,0000 0000 0000 0000 000000
2015-06-16 07:02:29,0.03,0.04,0.00,24.00,27.41,29.82,4.73,23.24,1011.43,2037.35,3503.88,3308.89,3595.05,349.97,344.60,16.31,0000 0000 0000 0000 000000
2015-06-16 07:07:31,-0.00,0.04,0.00,24.01,27.42,29.82,4.75,23.18,1011.43,2037.22,3503.89,3308.84,3595.02,350.26,344.99,16.34,0000 0000 0000 0000 000000
2015-06-16 07:12:32,-0.02,0.04,0.00,24.02,27.42,29.82,4.70,23.29,1011.29,2037.13,3503.95,3308.81,3595.01,349.42,343.85,16.37,0000 0000 0000 0000 000000
2015-06-16 07:17:33,0.01,0.04,0.00,24.02,27.42,29.83,4.76,23.26,1011.30,2037.07,3503.86,3308.72,3595.01,350.33,345.08,16.40,0000 0000 0000 0000 000000
2015-06-16 07:22:34,0.03,0.04,0.00,24.02,27.42,29.83,4.70,23.42,1011.48,2037.04,3503.21,3308.22,3595.00,350.05,345.01,16.43,0000 0000 0000 0000 000000
2015-06-16 07:27:36,0.00,0.04,0.00,24.04,27.44,29.84,4.72,23.47,1011.67,2037.04,3503.23,3308.17,3595.00,350.01,344.74,16.46,0000 0000 0000 0000 000000
2015-06-16 07:32:37,0.00,0.04,0.00,24.04,27.45,29.85,4.72,23.37,1011.72,2037.04,3503.07,3308.04,3595.00,349.92,344.65,16.49,0000 0000 0000 0000 000000
2015-06-16 07:37:38,-0.00,0.04,0.00,24.07,27.45,29.86,4.65,23.27,1011.73,2037.02,3503.12,3308.06,3595.00,349.37,344.18,16.52,0000 0000 0000 0000 000000
2015-06-16 07:42:39,-0.00,0.04,0.00,24.11,27.45,29.85,4.76,23.28,1011.73,2037.02,3503.10,3308.04,3594.99,350.08,344.86,16.54,0000 0000 0000 0000 000000
2015-06-16 07:47:40,0.01,0.04,0.00,24.13,27.47,29.85,4.65,23.23,1011.73,2037.01,3503.02,3308.02,3594.97,349.20,343.91,16.57,0000 0000 0000 0000 000000
2015-06-16 07:52:42,-0.00,0.04,0.00,24.16,27.47,29.87,4.67,23.13,1011.73,2037.02,3503.02,3308.02,3594.98,349.35,344.14,16.60,0000 0000 0000 0000 000000
2015-06-16 07:57:43,0.00,0.04,0.00,24.17,27.48,29.88,4.68,23.20,1011.75,2037.00,3503.02,3308.01,3594.96,349.49,344.19,16.63,0000 0000 0000 0000 000000
2015-06-16 08:02:44,0.01,0.04,0.00,24.19,27.50,29.92,4.68,23.13,1011.75,2037.03,3503.02,3308.01,3594.98,349.03,343.93,16.66,0000 0000 0000 0000 000000
2015-06-16 08:07:45,-0.00,0.04,0.00,24.19,27.51,29.94,4.74,23.18,1011.82,2037.02,3503.03,3308.00,3594.89,350.01,344.69,16.69,0000 0000 0000 0000 000000
2015-06-16 08:12:46,0.01,0.04,0.00,24.20,27.52,29.95,4.72,23.26,1012.09,2037.00,3503.04,3308.00,3594.45,350.29,344.85,16.72,0000 0000 0000 0000 000000
2015-06-16 08:17:47,0.00,0.04,0.00,24.22,27.54,29.96,4.65,23.23,1012.13,2037.00,3503.01,3308.00,3594.26,349.15,344.02,16.75,0000 0000 0000 0000 000000
2015-06-16 08:22:48,0.00,0.04,0.00,24.23,27.55,29.97,4.71,23.36,1012.17,2036.99,3502.99,3307.99,3594.04,350.23,344.88,16.78,0000 0000 0000 0000 000000
2015-06-16 08:27:50,-0.00,0.04,0.00,24.25,27.57,29.98,4.72,23.12,1012.22,2036.99,3502.99,3307.98,3594.02,349.83,344.56,16.81,0000 0000 0000 0000 000000
2015-06-16 08:32:51,0.00,0.04,0.00,24.26,27.57,30.00,4.70,23.07,1012.22,2036.98,3502.99,3307.87,3594.00,350.04,344.95,16.84,0000 0000 0000 0000 000000
2015-06-16 08:37:52,0.00,0.04,0.00,24.27,27.60,30.01,4.73,23.23,1012.22,2036.96,3502.98,3307.63,3593.99,350.18,344.84,16.87,0000 0000 0000 0000 000000
2015-06-16 08:42:53,-0.00,0.04,0.00,24.28,27.60,30.03,4.76,23.14,1012.26,2036.91,3502.98,3307.38,3593.98,350.58,345.28,16.90,0000 0000 0000 0000 000000
2015-06-16 08:47:54,-0.04,0.04,0.00,24.29,27.62,30.03,4.76,23.09,1012.41,2036.55,3502.83,3307.04,3593.79,350.45,345.34,16.92,0000 0000 0000 0000 000000
2015-06-16 08:52:55,-0.02,0.04,0.00,24.29,27.63,30.05,4.68,23.18,1012.67,2036.31,3502.47,3307.01,3593.72,349.67,344.66,16.95,0000 0000 0000 0000 000000
2015-06-16 08:57:57,0.01,0.04,0.00,24.30,27.65,30.07,4.70,23.31,1012.71,2036.30,3502.11,3307.00,3593.43,350.00,344.88,16.98,0000 0000 0000 0000 000000
2015-06-16 09:02:58,-0.02,0.04,0.00,24.30,27.65,30.07,4.72,23.16,1012.71,2036.10,3502.06,3307.00,3593.15,349.54,344.39,17.01,0000 0000 0000 0000 000000
2015-06-16 09:07:59,0.00,0.04,0.00,24.30,27.67,30.09,4.68,23.17,1012.71,2036.08,3502.00,3307.00,3593.12,349.90,344.83,17.04,0000 0000 0000 0000 000000
2015-06-16 09:13:01,-0.01,0.04,0.00,24.31,27.67,30.11,4.78,23.17,1012.72,2036.05,3502.00,3306.98,3593.04,350.80,345.73,17.07,0000 0000 0000 0000 000000
2015-06-16 09:18:02,-0.00,0.04,0.00,24.30,27.69,30.10,4.74,23.34,1012.76,2036.03,3501.99,3306.97,3593.00,350.13,345.07,17.10,0000 0000 0000 0000 000000
2015-06-16 09:23:03,0.00,0.04,0.00,24.30,27.70,30.13,4.69,23.34,1012.87,2036.01,3501.97,3306.79,3593.00,349.83,344.74,17.13,0000 0000 0000 0000 000000
2015-06-16 09:28:04,-0.00,0.04,0.00,24.30,27.70,30.15,4.69,23.08,1013.03,2036.02,3501.98,3306.80,3592.99,349.93,344.93,17.16,0000 0000 0000 0000 000000
2015-06-16 09:33:05,0.01,0.04,0.00,24.30,27.72,30.15,4.76,23.07,1013.17,2036.01,3501.94,3306.56,3592.99,350.06,345.06,17.19,0000 0000 0000 0000 000000
2015-06-16 09:38:07,0.01,0.04,0.00,24.30,27.72,30.17,4.65,23.07,1013.18,2036.00,3501.78,3306.30,3592.98,349.88,344.86,17.22,0000 0000 0000 0000 000000
2015-06-16 09:43:08,-0.00,0.04,0.00,24.30,27.72,30.18,4.72,23.18,1013.20,2036.00,3501.79,3306.31,3592.98,349.81,344.92,17.25,0000 0000 0000 0000 000000
2015-06-16 09:48:09,0.02,0.04,0.00,24.31,27.74,30.17,4.74,23.18,1013.19,2036.00,3501.50,3306.13,3592.96,350.38,345.34,17.28,0000 0000 0000 0000 000000
2015-06-16 09:53:10,-0.00,0.04,0.00,24.30,27.75,30.19,4.77,23.24,1013.20,2036.00,3501.34,3306.06,3592.96,350.37,345.18,17.31,0000 0000 0000 0000 000000
2015-06-16 09:58:11,0.02,0.04,0.00,24.30,27.75,30.22,4.75,23.15,1013.20,2036.00,3501.30,3306.03,3592.81,350.43,345.05,17.33,0000 0000 0000 0000 000000
2015-06-16 10:03:12,0.00,0.04,0.00,24.30,27.75,30.22,4.70,23.18,1013.21,2036.00,3501.07,3306.01,3592.63,350.20,345.15,17.36,0000 0000 0000 0000 000000
2015-06-16 10:08:14,0.00,0.04,0.00,24.30,27.76,30.22,4.70,23.23,1013.23,2036.00,3501.07,3306.01,3592.63,349.77,344.80,17.39,0000 0000 0000 0000 000000
2015-06-16 10:13:15,0.01,0.04,0.00,24.30,27.77,30.22,4.75,23.21,1013.48,2036.00,3501.02,3306.00,3592.30,349.88,344.98,17.42,0000 0000 0000 0000 000000
2015-06-16 10:18:16,-0.00,0.04,0.00,24.31,27.77,30.22,4.71,23.29,1013.57,2036.00,3501.00,3306.00,3592.25,350.04,345.20,17.45,0000 0000 0000 0000 000000
2015-06-16 10:23:18,0.00,0.04,0.00,24.32,27.77,30.22,4.69,23.26,1013.64,2035.99,3501.00,3305.99,3592.03,350.22,345.33,17.48,0000 0000 0000 0000 000000
2015-06-16 10:28:19,0.00,0.04,0.00,24.32,27.78,30.23,4.71,23.11,1013.69,2035.99,3501.00,3305.99,3592.03,349.88,344.91,17.51,0000 0000 0000 0000 000000
2015-06-16 10:33:20,0.00,0.04,0.00,24.32,27.79,30.21,4.74,23.17,1013.69,2035.99,3501.00,3305.99,3592.03,349.06,344.33,17.54,0000 0000 0000 0000 000000
2015-06-16 10:38:21,0.00,0.04,0.00,24.34,27.80,30.22,4.67,23.07,1013.69,2035.99,3500.99,3305.99,3592.01,349.62,344.75,17.57,0000 0000 0000 0000 000000
2015-06-16 10:43:22,-0.00,0.04,0.00,24.35,27.80,30.22,4.66,23.18,1013.69,2035.99,3500.99,3305.98,3592.01,349.52,344.55,17.60,0000 0000 0000 0000 000000
2015-06-16 10:48:23,-0.00,0.04,0.00,24.35,27.80,30.21,4.65,23.26,1013.70,2035.98,3500.99,3305.98,3592.00,349.24,344.26,17.63,0000 0000 0000 0000 000000
2015-06-16 10:53:24,0.00,0.04,0.00,24.32,27.80,30.22,4.70,23.08,1013.71,2035.99,3500.99,3305.96,3592.00,349.53,344.67,17.66,0000 0000 0000 0000 000000
2015-06-16 10:58:26,0.00,0.04,0.00,24.32,27.82,30.24,4.70,23.22,1013.76,2035.98,3500.99,3305.91,3592.00,349.82,344.90,17.69,0000 0000 0000 0000 000000
2015-06-16 11:03:27,0.01,0.04,0.00,24.32,27.82,30.25,4.71,23.27,1013.86,2035.98,3500.93,3305.79,3592.00,349.15,344.43,17.72,0000 0000 0000 0000 000000
2015-06-16 11:08:28,0.01,0.04,0.00,24.33,27.82,30.28,4.70,23.14,1013.93,2035.98,3500.86,3305.54,3591.99,350.08,345.27,17.74,0000 0000 0000 0000 000000
2015-06-16 11:13:29,0.02,0.04,0.00,24.32,27.82,30.31,4.71,23.08,1013.97,2035.97,3500.63,3305.20,3591.93,349.98,345.42,17.77,0000 0000 0000 0000 000000
2015-06-16 11:18:31,-0.02,0.04,0.00,24.32,27.82,30.32,4.68,23.30,1013.98,2035.98,3500.84,3305.48,3591.97,349.51,344.67,17.80,0000 0000 0000 0000 000000
2015-06-16 11:23:32,0.03,0.04,0.00,24.32,27.82,30.34,4.66,23.32,1014.05,2035.97,3500.32,3305.11,3591.95,349.39,344.69,17.83,0000 0000 0000 0000 000000
2015-06-16 11:28:33,0.00,0.04,0.00,24.30,27.82,30.36,4.74,23.24,1014.15,2035.97,3500.26,3305.11,3591.91,350.16,345.55,17.86,0000 0000 0000 0000 000000
2015-06-16 11:33:34,-0.00,0.04,0.00,24.30,27.83,30.35,4.78,23.11,1014.17,2035.98,3500.30,3305.15,3591.96,350.46,346.04,17.89,0000 0000 0000 0000 000000
2015-06-16 11:38:36,-0.02,0.04,0.00,24.30,27.83,30.37,4.71,23.21,1014.17,2035.99,3500.56,3305.27,3591.97,348.99,344.66,17.92,0000 0000 0000 0000 000000
2015-06-16 11:43:37,0.02,0.04,0.00,24.27,27.84,30.37,4.73,23.17,1014.17,2035.98,3500.41,3305.18,3591.93,350.22,345.44,17.95,0000 0000 0000 0000 000000
2015-06-16 11:48:38,-0.00,0.04,0.00,24.27,27.84,30.38,4.70,23.15,1014.17,2035.97,3500.33,3305.12,3591.90,349.94,345.39,17.98,0000 0000 0000 0000 000000
2015-06-16 11:53:39,0.01,0.04,0.00,24.27,27.84,30.37,4.69,23.10,1014.18,2035.98,3500.38,3305.13,3591.90,349.82,345.21,18.01,0000 0000 0000 0000 000000
2015-06-16 11:58:40,-0.01,0.04,0.00,24.26,27.84,30.41,4.76,23.18,1014.21,2035.96,3500.49,3305.14,3591.88,350.06,345.45,18.04,0000 0000 0000 0000 000000
2015-06-16 12:03:41,0.01,0.04,0.00,24.25,27.84,30.41,4.69,23.21,1014.19,2035.93,3500.31,3305.09,3591.84,349.63,344.95,18.07,0000 0000 0000 0000 000000
2015-06-16 12:08:42,-0.00,0.04,0.00,24.25,27.84,30.38,4.72,23.22,1014.24,2035.88,3500.20,3305.05,3591.72,350.10,345.62,18.10,0000 0000 0000 0000 000000
2015-06-16 12:13:44,0.01,0.04,0.00,24.24,27.84,30.38,4.78,23.18,1014.34,2035.91,3500.06,3305.03,3591.63,350.26,345.80,18.13,0000 0000 0000 0000 000000
2015-06-16 12:18:45,-0.00,0.04,0.00,24.23,27.83,30.41,4.75,23.23,1014.50,2035.94,3500.04,3305.04,3591.84,350.44,345.90,18.15,0000 0000 0000 0000 000000
2015-06-16 12:23:46,0.00,0.04,0.00,24.22,27.83,30.42,4.75,23.31,1014.61,2035.96,3500.03,3305.03,3591.78,350.49,346.02,18.18,0000 0000 0000 0000 000000
2015-06-16 12:28:47,-0.01,0.04,0.00,24.22,27.83,30.39,4.76,23.22,1014.58,2035.95,3500.12,3305.05,3591.89,350.41,346.02,18.21,0000 0000 0000 0000 000000
2015-06-16 12:33:49,-0.01,0.04,0.00,24.22,27.82,30.41,4.69,23.16,1014.59,2035.97,3500.38,3305.17,3591.95,350.11,345.81,18.24,0000 0000 0000 0000 000000
2015-06-16 12:38:50,0.00,0.04,0.00,24.21,27.82,30.41,4.77,23.18,1014.63,2035.95,3500.12,3305.09,3591.87,350.57,346.15,18.27,0000 0000 0000 0000 000000
2015-06-16 12:43:51,0.01,0.04,0.00,24.20,27.82,30.40,4.76,23.10,1014.66,2035.98,3500.11,3305.08,3591.86,350.28,345.90,18.30,0000 0000 0000 0000 000000
2015-06-16 12:48:52,-0.02,0.04,0.00,24.20,27.82,30.38,4.77,23.19,1014.66,2035.98,3500.23,3305.15,3591.88,349.43,345.09,18.33,0000 0000 0000 0000 000000
2015-06-16 12:53:53,-0.00,0.04,0.00,24.17,27.82,30.42,4.71,23.12,1014.66,2035.98,3500.36,3305.25,3591.97,350.05,345.61,18.36,0000 0000 0000 0000 000000
2015-06-16 12:58:55,-0.02,0.04,0.00,24.17,27.82,30.38,4.72,23.19,1014.66,2035.98,3500.58,3305.55,3591.97,349.62,345.35,18.39,0000 0000 0000 0000 000000